"Sample Date","Sample Time","Sample Value","Units","Flow Rate","Sample Interval","Number Channels","Micron Size 0","Counts/Channel 0","Micron Size 1","Counts/Channel 1","Micron Size 2","Counts/Channel 2","Micron Size 3","Counts/Channel 3","Micron Size 4","Counts/Channel 4","Micron Size 5","Counts/Channel 5","Micron Size 6","Counts/Channel 6","Micron Size 7","Counts/Channel 7","Micron Size 8","Counts/Channel 8","Micron Size 9","Counts/Channel 9","Micron Size 10","Counts/Channel 10","Micron Size 11","Counts/Channel 11","Micron Size 12","Counts/Channel 12","Micron Size 13","Counts/Channel 13","Micron Size 14","Counts/Channel 14","Micron Size 15","Counts/Channel 15","Micron Size 16","Counts/Channel 16","Micron Size 17","Counts/Channel 17","Micron Size 18","Counts/Channel 18","Micron Size 19","Counts/Channel 19","Micron Size 20","Counts/Channel 20","Micron Size 21","Counts/Channel 21","Micron Size 22","Counts/Channel 22","Micron Size 23","Counts/Channel 23","Micron Size 24","Counts/Channel 24","Micron Size 25","Counts/Channel 25","Micron Size 26","Counts/Channel 26","Micron Size 27","Counts/Channel 27","Micron Size 28","Counts/Channel 28","Micron Size 29","Counts/Channel 29","Micron Size 30","Counts/Channel 30","Micron Size 31","Counts/Channel 31"
"03/05/08","02:00:00",52104.000,"cc",28321.900,6.00,6,0.100,42117.000,0.200,4950.000,0.300,2318.000,0.500,2014.000,1.000,705.000,5.000,0
"03/05/08","02:00:06",50224.000,"cc",28282.127,6.00,6,0.100,41413.000,0.200,4284.000,0.300,2098.000,0.500,1780.000,1.000,649.000,5.000,0
"03/05/08","02:00:12",53979.000,"cc",28379.215,6.00,6,0.100,42468.000,0.200,5461.000,0.300,2745.000,0.500,2410.000,1.000,895.000,5.000,0
"03/05/08","02:00:18",55773.000,"cc",28331.522,6.00,6,0.100,43086.000,0.200,5834.000,0.300,3153.000,0.500,2721.000,1.000,979.000,5.000,0
"03/05/08","02:00:24",59119.000,"cc",28292.348,6.00,6,0.100,44253.000,0.200,6762.000,0.300,3697.000,0.500,3173.000,1.000,1234.000,5.000,0
"03/05/08","02:00:30",56402.000,"cc",28328.994,6.00,6,0.100,43935.000,0.200,5884.000,0.300,3133.000,0.500,2614.000,1.000,836.000,5.000,0
"03/05/08","02:00:36",57891.000,"cc",28286.836,6.00,6,0.100,44281.000,0.200,6391.000,0.300,3463.000,0.500,2807.000,1.000,949.000,5.000,0
"03/05/08","02:00:42",56808.000,"cc",28281.561,6.00,6,0.100,44093.000,0.200,5916.000,0.300,3195.000,0.500,2694.000,1.000,910.000,5.000,0
"03/05/08","02:00:48",56112.000,"cc",28347.039,6.00,6,0.100,43515.000,0.200,6028.000,0.300,3137.000,0.500,2543.000,1.000,889.000,5.000,0
"03/05/08","02:00:54",52723.000,"cc",28326.133,6.00,6,0.100,42205.000,0.200,5049.000,0.300,2553.000,0.500,2175.000,1.000,741.000,5.000,0
"03/05/08","02:01:00",51609.000,"cc",28296.393,6.00,6,0.100,41932.000,0.200,4779.000,0.300,2288.000,0.500,1964.000,1.000,646.000,5.000,0
"03/05/08","02:01:06",47897.000,"cc",28311.190,6.00,6,0.100,40146.000,0.200,3977.000,0.300,1691.000,0.500,1533.000,1.000,550.000,5.000,0
"03/05/08","02:01:12",47738.000,"cc",28297.729,6.00,6,0.100,40179.000,0.200,3904.000,0.300,1637.000,0.500,1524.000,1.000,494.000,5.000,0
"03/05/08","02:01:18",47561.000,"cc",28306.568,6.00,6,0.100,40259.000,0.200,3823.000,0.300,1582.000,0.500,1395.000,1.000,502.000,5.000,0
"03/05/08","02:01:24",48399.000,"cc",28277.152,6.00,6,0.100,40516.000,0.200,4192.000,0.300,1766.000,0.500,1450.000,1.000,475.000,5.000,0
"03/05/08","02:01:30",47396.000,"cc",28360.563,6.00,6,0.100,39984.000,0.200,3881.000,0.300,1613.000,0.500,1428.000,1.000,490.000,5.000,0
"03/05/08","02:01:36",45880.000,"cc",28342.400,6.00,6,0.100,39450.000,0.200,3415.000,0.300,1320.000,0.500,1243.000,1.000,452.000,5.000,0
"03/05/08","02:01:42",44269.000,"cc",28305.805,6.00,6,0.100,38674.000,0.200,3153.000,0.300,1081.000,0.500,1007.000,1.000,354.000,5.000,0
"03/05/08","02:01:48",44700.000,"cc",28351.660,6.00,6,0.100,38734.000,0.200,3341.000,0.300,1153.000,0.500,1058.000,1.000,414.000,5.000,0
"03/05/08","02:01:54",48135.000,"cc",28278.268,6.00,6,0.100,40343.000,0.200,4006.000,0.300,1738.000,0.500,1518.000,1.000,530.000,5.000,0
"03/05/08","02:02:00",51256.000,"cc",28335.457,6.00,6,0.100,41720.000,0.200,4842.000,0.300,2204.000,0.500,1870.000,1.000,619.000,5.000,1.000
"03/05/08","02:02:06",49441.000,"cc",28295.434,6.00,6,0.100,41027.000,0.200,4333.000,0.300,1881.000,0.500,1603.000,1.000,597.000,5.000,0
"03/05/08","02:02:12",44818.000,"cc",28329.883,6.00,6,0.100,38933.000,0.200,3209.000,0.300,1170.000,0.500,1134.000,1.000,372.000,5.000,0
"03/05/08","02:02:18",45178.000,"cc",28283.793,6.00,6,0.100,39076.000,0.200,3337.000,0.300,1230.000,0.500,1153.000,1.000,382.000,5.000,0
"03/05/08","02:02:24",46085.000,"cc",28331.666,6.00,6,0.100,39742.000,0.200,3404.000,0.300,1299.000,0.500,1237.000,1.000,403.000,5.000,0
"03/05/08","02:02:30",50797.000,"cc",28282.490,6.00,6,0.100,41603.000,0.200,4719.000,0.300,2127.000,0.500,1742.000,1.000,606.000,5.000,0
"03/05/08","02:02:36",47106.000,"cc",28336.285,6.00,6,0.100,40088.000,0.200,3747.000,0.300,1519.000,0.500,1284.000,1.000,468.000,5.000,0
"03/05/08","02:02:42",45657.000,"cc",28380.541,6.00,6,0.100,39178.000,0.200,3572.000,0.300,1330.000,0.500,1165.000,1.000,412.000,5.000,0
"03/05/08","02:02:48",48509.000,"cc",28297.234,6.00,6,0.100,40534.000,0.200,4098.000,0.300,1790.000,0.500,1568.000,1.000,519.000,5.000,0
"03/05/08","02:02:54",44517.000,"cc",28333.330,6.00,6,0.100,38762.000,0.200,3133.000,0.300,1101.000,0.500,1138.000,1.000,383.000,5.000,0
"03/05/08","02:03:00",43852.000,"cc",28247.107,6.00,6,0.100,38350.000,0.200,3057.000,0.300,1086.000,0.500,1001.000,1.000,358.000,5.000,0
"03/05/08","02:03:06",45014.000,"cc",28313.775,6.00,6,0.100,39083.000,0.200,3215.000,0.300,1171.000,0.500,1127.000,1.000,418.000,5.000,0
"03/05/08","02:03:12",44091.000,"cc",28295.145,6.00,6,0.100,39051.000,0.200,2931.000,0.300,937.000,0.500,879.000,1.000,293.000,5.000,0
"03/05/08","02:03:18",45791.000,"cc",28290.902,6.00,6,0.100,39385.000,0.200,3499.000,0.300,1290.000,0.500,1213.000,1.000,404.000,5.000,0
"03/05/08","02:03:24",51913.000,"cc",28371.910,6.00,6,0.100,42102.000,0.200,4897.000,0.300,2280.000,0.500,1979.000,1.000,655.000,5.000,0
"03/05/08","02:03:30",49668.000,"cc",28329.902,6.00,6,0.100,41072.000,0.200,4408.000,0.300,1886.000,0.500,1725.000,1.000,577.000,5.000,0
"03/05/08","02:03:36",49834.000,"cc",28280.428,6.00,6,0.100,41405.000,0.200,4340.000,0.300,1952.000,0.500,1621.000,1.000,516.000,5.000,0
"03/05/08","02:03:42",44907.000,"cc",28314.117,6.00,6,0.100,39022.000,0.200,3272.000,0.300,1138.000,0.500,1101.000,1.000,374.000,5.000,0
"03/05/08","02:03:48",51411.000,"cc",28323.533,6.00,6,0.100,41724.000,0.200,4903.000,0.300,2290.000,0.500,1884.000,1.000,610.000,5.000,0
"03/05/08","02:03:54",53332.000,"cc",28323.844,6.00,6,0.100,42831.000,0.200,5276.000,0.300,2485.000,0.500,2025.000,1.000,715.000,5.000,0
"03/05/08","02:04:00",46634.000,"cc",28364.508,6.00,6,0.100,39919.000,0.200,3560.000,0.300,1410.000,0.500,1295.000,1.000,450.000,5.000,0
"03/05/08","02:04:06",48384.000,"cc",28269.576,6.00,6,0.100,40697.000,0.200,3962.000,0.300,1745.000,0.500,1449.000,1.000,531.000,5.000,0
"03/05/08","02:04:12",46710.000,"cc",28280.010,6.00,6,0.100,39755.000,0.200,3692.000,0.300,1493.000,0.500,1334.000,1.000,436.000,5.000,0
"03/05/08","02:04:18",46639.000,"cc",28302.897,6.00,6,0.100,39904.000,0.200,3628.000,0.300,1361.000,0.500,1316.000,1.000,430.000,5.000,0
"03/05/08","02:04:24",46875.000,"cc",28371.273,6.00,6,0.100,39965.000,0.200,3639.000,0.300,1481.000,0.500,1324.000,1.000,466.000,5.000,0
"03/05/08","02:04:30",51201.000,"cc",28313.795,6.00,6,0.100,41996.000,0.200,4813.000,0.300,2134.000,0.500,1679.000,1.000,579.000,5.000,0
"03/05/08","02:04:36",51706.000,"cc",28348.719,6.00,6,0.100,42038.000,0.200,4815.000,0.300,2306.000,0.500,1931.000,1.000,616.000,5.000,0
"03/05/08","02:04:42",50621.000,"cc",28287.236,6.00,6,0.100,41388.000,0.200,4732.000,0.300,2115.000,0.500,1772.000,1.000,614.000,5.000,0
"03/05/08","02:04:48",50742.000,"cc",28281.578,6.00,6,0.100,41587.000,0.200,4608.000,0.300,2169.000,0.500,1772.000,1.000,606.000,5.000,0
"03/05/08","02:04:54",46611.000,"cc",28342.781,6.00,6,0.100,39749.000,0.200,3688.000,0.300,1466.000,0.500,1262.000,1.000,446.000,5.000,0
"03/05/08","02:05:00",46050.000,"cc",28330.752,6.00,6,0.100,39762.000,0.200,3456.000,0.300,1244.000,0.500,1176.000,1.000,412.000,5.000,0
"03/05/08","02:05:06",49588.000,"cc",28290.252,6.00,6,0.100,41437.000,0.200,4323.000,0.300,1851.000,0.500,1511.000,1.000,466.000,5.000,0
"03/05/08","02:05:12",47743.000,"cc",28327.455,6.00,6,0.100,40408.000,0.200,3893.000,0.300,1538.000,0.500,1432.000,1.000,472.000,5.000,0
"03/05/08","02:05:18",46017.000,"cc",28321.342,6.00,6,0.100,39422.000,0.200,3589.000,0.300,1373.000,0.500,1221.000,1.000,412.000,5.000,0
"03/05/08","02:05:24",44381.000,"cc",28330.918,6.00,6,0.100,38819.000,0.200,3063.000,0.300,1064.000,0.500,1049.000,1.000,386.000,5.000,0
"03/05/08","02:05:30",45766.000,"cc",28289.619,6.00,6,0.100,39535.000,0.200,3371.000,0.300,1254.000,0.500,1191.000,1.000,415.000,5.000,0
"03/05/08","02:05:36",46187.000,"cc",28296.104,6.00,6,0.100,39573.000,0.200,3618.000,0.300,1400.000,0.500,1186.000,1.000,410.000,5.000,0
"03/05/08","02:05:42",49275.000,"cc",28353.682,6.00,6,0.100,40903.000,0.200,4331.000,0.300,1877.000,0.500,1648.000,1.000,516.000,5.000,0
"03/05/08","02:05:48",50017.000,"cc",28314.695,6.00,6,0.100,41431.000,0.200,4532.000,0.300,1941.000,0.500,1577.000,1.000,536.000,5.000,0
"03/05/08","02:05:54",52911.000,"cc",28282.779,6.00,6,0.100,42782.000,0.200,5095.000,0.300,2428.000,0.500,1958.000,1.000,648.000,5.000,0
"03/05/08","02:06:00",53332.000,"cc",28308.229,6.00,6,0.100,42822.000,0.200,5364.000,0.300,2447.000,0.500,2036.000,1.000,663.000,5.000,0
"03/05/08","02:06:06",44141.000,"cc",28330.779,6.00,6,0.100,38672.000,0.200,3016.000,0.300,1084.000,0.500,1004.000,1.000,365.000,5.000,0
"03/05/08","02:06:12",47581.000,"cc",28361.512,6.00,6,0.100,40161.000,0.200,3911.000,0.300,1616.000,0.500,1444.000,1.000,449.000,5.000,0
"03/05/08","02:06:18",56842.000,"cc",28335.770,6.00,6,0.100,44503.000,0.200,6187.000,0.300,3034.000,0.500,2365.000,1.000,753.000,5.000,0
"03/05/08","02:06:24",50462.000,"cc",28272.633,6.00,6,0.100,41502.000,0.200,4554.000,0.300,2129.000,0.500,1705.000,1.000,572.000,5.000,0
"03/05/08","02:06:30",47701.000,"cc",28332.662,6.00,6,0.100,39971.000,0.200,4125.000,0.300,1694.000,0.500,1421.000,1.000,490.000,5.000,0
"03/05/08","02:06:36",45029.000,"cc",28306.969,6.00,6,0.100,39368.000,0.200,3144.000,0.300,1108.000,0.500,1046.000,1.000,363.000,5.000,0
"03/05/08","02:06:42",44619.000,"cc",28324.713,6.00,6,0.100,39117.000,0.200,3117.000,0.300,1048.000,0.500,1001.000,1.000,336.000,5.000,0
"03/05/08","02:06:48",46425.000,"cc",28287.418,6.00,6,0.100,40048.000,0.200,3494.000,0.300,1324.000,0.500,1193.000,1.000,366.000,5.000,0
"03/05/08","02:06:54",48632.000,"cc",28355.395,6.00,6,0.100,40538.000,0.200,4170.000,0.300,1754.000,0.500,1613.000,1.000,557.000,5.000,0
"03/05/08","02:07:00",45442.000,"cc",28339.227,6.00,6,0.100,39411.000,0.200,3357.000,0.300,1201.000,0.500,1110.000,1.000,363.000,5.000,0
"03/05/08","02:07:06",46485.000,"cc",28318.367,6.00,6,0.100,39806.000,0.200,3613.000,0.300,1409.000,0.500,1214.000,1.000,443.000,5.000,0
"03/05/08","02:07:12",48408.000,"cc",28278.457,6.00,6,0.100,40654.000,0.200,4195.000,0.300,1659.000,0.500,1405.000,1.000,495.000,5.000,0
"03/05/08","02:07:18",45681.000,"cc",28326.195,6.00,6,0.100,39498.000,0.200,3365.000,0.300,1309.000,0.500,1140.000,1.000,369.000,5.000,0
"03/05/08","02:07:24",47736.000,"cc",28360.924,6.00,6,0.100,40230.000,0.200,3859.000,0.300,1664.000,0.500,1497.000,1.000,486.000,5.000,0
"03/05/08","02:07:30",47514.000,"cc",28309.951,6.00,6,0.100,40229.000,0.200,3866.000,0.300,1562.000,0.500,1378.000,1.000,479.000,5.000,0
"03/05/08","02:07:36",45859.000,"cc",28328.945,6.00,6,0.100,39493.000,0.200,3430.000,0.300,1307.000,0.500,1213.000,1.000,416.000,5.000,0
"03/05/08","02:07:42",43626.000,"cc",28257.809,6.00,6,0.100,38565.000,0.200,2870.000,0.300,916.000,0.500,981.000,1.000,294.000,5.000,0
"03/05/08","02:07:48",46219.000,"cc",28307.133,6.00,6,0.100,39721.000,0.200,3547.000,0.300,1352.000,0.500,1212.000,1.000,387.000,5.000,0
"03/05/08","02:07:54",51450.000,"cc",28328.424,6.00,6,0.100,41800.000,0.200,4870.000,0.300,2267.000,0.500,1872.000,1.000,641.000,5.000,0
"03/05/08","02:08:00",51582.000,"cc",28364.664,6.00,6,0.100,42029.000,0.200,4799.000,0.300,2225.000,0.500,1920.000,1.000,609.000,5.000,0
"03/05/08","02:08:06",51729.000,"cc",28338.328,6.00,6,0.100,42037.000,0.200,4886.000,0.300,2308.000,0.500,1847.000,1.000,651.000,5.000,0
"03/05/08","02:08:12",48341.000,"cc",28260.020,6.00,6,0.100,40599.000,0.200,4068.000,0.300,1708.000,0.500,1468.000,1.000,498.000,5.000,0
"03/05/08","02:08:18",46746.000,"cc",28305.795,6.00,6,0.100,39836.000,0.200,3691.000,0.300,1420.000,0.500,1311.000,1.000,488.000,5.000,0
"03/05/08","02:08:24",45465.000,"cc",28385.371,6.00,6,0.100,39090.000,0.200,3443.000,0.300,1311.000,0.500,1192.000,1.000,429.000,5.000,0
"03/05/08","02:08:30",50407.000,"cc",28325.350,6.00,6,0.100,41217.000,0.200,4649.000,0.300,2025.000,0.500,1865.000,1.000,651.000,5.000,0
"03/05/08","02:08:36",50825.000,"cc",28237.797,6.00,6,0.100,41371.000,0.200,4665.000,0.300,2169.000,0.500,1942.000,1.000,678.000,5.000,0
"03/05/08","02:08:42",49471.000,"cc",28334.891,6.00,6,0.100,41137.000,0.200,4223.000,0.300,1818.000,0.500,1663.000,1.000,630.000,5.000,0
"03/05/08","02:08:48",53407.000,"cc",28301.766,6.00,6,0.100,42598.000,0.200,5240.000,0.300,2528.000,0.500,2263.000,1.000,778.000,5.000,0
"03/05/08","02:08:54",48984.000,"cc",28335.551,6.00,6,0.100,40698.000,0.200,4220.000,0.300,1870.000,0.500,1628.000,1.000,568.000,5.000,0
"03/05/08","02:09:00",47302.000,"cc",28320.518,6.00,6,0.100,40365.000,0.200,3663.000,0.300,1461.000,0.500,1336.000,1.000,477.000,5.000,0
"03/05/08","02:09:06",48561.000,"cc",28306.102,6.00,6,0.100,40557.000,0.200,4111.000,0.300,1830.000,0.500,1538.000,1.000,525.000,5.000,0
"03/05/08","02:09:12",46993.000,"cc",28278.434,6.00,6,0.100,40075.000,0.200,3608.000,0.300,1514.000,0.500,1330.000,1.000,466.000,5.000,0
"03/05/08","02:09:18",46263.000,"cc",28326.461,6.00,6,0.100,39662.000,0.200,3523.000,0.300,1374.000,0.500,1267.000,1.000,437.000,5.000,0
"03/05/08","02:09:24",45768.000,"cc",28350.404,6.00,6,0.100,39347.000,0.200,3459.000,0.300,1315.000,0.500,1231.000,1.000,415.000,5.000,1.000
"03/05/08","02:09:30",45471.000,"cc",28243.660,6.00,6,0.100,39278.000,0.200,3330.000,0.300,1319.000,0.500,1133.000,1.000,411.000,5.000,0
"03/05/08","02:09:36",44265.000,"cc",28334.145,6.00,6,0.100,38716.000,0.200,3063.000,0.300,1115.000,0.500,1006.000,1.000,365.000,5.000,0
"03/05/08","02:09:42",43807.000,"cc",28383.520,6.00,6,0.100,38571.000,0.200,2951.000,0.300,1020.000,0.500,943.000,1.000,322.000,5.000,0
"03/05/08","02:09:48",45602.000,"cc",28304.900,6.00,6,0.100,39385.000,0.200,3373.000,0.300,1258.000,0.500,1193.000,1.000,393.000,5.000,0
"03/05/08","02:09:54",46333.000,"cc",28314.156,6.00,6,0.100,39717.000,0.200,3563.000,0.300,1362.000,0.500,1251.000,1.000,440.000,5.000,0
"03/05/08","02:10:00",48996.000,"cc",28372.459,6.00,6,0.100,40610.000,0.200,4282.000,0.300,1899.000,0.500,1670.000,1.000,535.000,5.000,0
"03/05/08","02:10:06",47468.000,"cc",28297.115,6.00,6,0.100,40146.000,0.200,3741.000,0.300,1611.000,0.500,1478.000,1.000,492.000,5.000,0
"03/05/08","02:10:12",46491.000,"cc",28287.842,6.00,6,0.100,39647.000,0.200,3668.000,0.300,1474.000,0.500,1311.000,1.000,391.000,5.000,0
"03/05/08","02:10:18",50261.000,"cc",28327.635,6.00,6,0.100,41626.000,0.200,4631.000,0.300,1941.000,0.500,1543.000,1.000,520.000,5.000,0
"03/05/08","02:10:24",54915.000,"cc",28304.844,6.00,6,0.100,43558.000,0.200,5689.000,0.300,2781.000,0.500,2197.000,1.000,690.000,5.000,0
"03/05/08","02:10:30",47971.000,"cc",28333.578,6.00,6,0.100,40351.000,0.200,3973.000,0.300,1631.000,0.500,1487.000,1.000,529.000,5.000,0
"03/05/08","02:10:36",45430.000,"cc",28370.117,6.00,6,0.100,39218.000,0.200,3424.000,0.300,1278.000,0.500,1124.000,1.000,386.000,5.000,0
"03/05/08","02:10:42",51163.000,"cc",28305.346,6.00,6,0.100,41726.000,0.200,4794.000,0.300,2178.000,0.500,1861.000,1.000,604.000,5.000,0
"03/05/08","02:10:48",45030.000,"cc",28318.994,6.00,6,0.100,39165.000,0.200,3303.000,0.300,1171.000,0.500,1021.000,1.000,370.000,5.000,0
"03/05/08","02:10:54",49488.000,"cc",28368.188,6.00,6,0.100,40886.000,0.200,4301.000,0.300,1997.000,0.500,1714.000,1.000,590.000,5.000,0
"03/05/08","02:11:00",50429.000,"cc",28222.428,6.00,6,0.100,41369.000,0.200,4533.000,0.300,2075.000,0.500,1838.000,1.000,614.000,5.000,0
"03/05/08","02:11:06",47822.000,"cc",28364.752,6.00,6,0.100,40179.000,0.200,4022.000,0.300,1671.000,0.500,1430.000,1.000,520.000,5.000,0
"03/05/08","02:11:12",48995.000,"cc",28264.342,6.00,6,0.100,40717.000,0.200,4164.000,0.300,1880.000,0.500,1688.000,1.000,546.000,5.000,0
"03/05/08","02:11:18",45845.000,"cc",28318.066,6.00,6,0.100,39476.000,0.200,3481.000,0.300,1284.000,0.500,1196.000,1.000,408.000,5.000,0
"03/05/08","02:11:24",44759.000,"cc",28362.262,6.00,6,0.100,38986.000,0.200,3167.000,0.300,1133.000,0.500,1090.000,1.000,383.000,5.000,0
"03/05/08","02:11:30",46024.000,"cc",28318.256,6.00,6,0.100,39407.000,0.200,3484.000,0.300,1442.000,0.500,1283.000,1.000,408.000,5.000,0
"03/05/08","02:11:36",44733.000,"cc",28324.234,6.00,6,0.100,39011.000,0.200,3155.000,0.300,1167.000,0.500,1077.000,1.000,323.000,5.000,0
"03/05/08","02:11:42",43403.000,"cc",28260.723,6.00,6,0.100,38371.000,0.200,2941.000,0.300,892.000,0.500,883.000,1.000,316.000,5.000,0
"03/05/08","02:11:48",48713.000,"cc",28298.883,6.00,6,0.100,40624.000,0.200,4180.000,0.300,1838.000,0.500,1551.000,1.000,520.000,5.000,0
"03/05/08","02:11:54",53121.000,"cc",28343.660,6.00,6,0.100,42417.000,0.200,5276.000,0.300,2572.000,0.500,2120.000,1.000,736.000,5.000,0
"03/05/08","02:12:00",46824.000,"cc",28408.363,6.00,6,0.100,39815.000,0.200,3767.000,0.300,1415.000,0.500,1352.000,1.000,475.000,5.000,0
"03/05/08","02:12:06",46031.000,"cc",28302.106,6.00,6,0.100,39499.000,0.200,3522.000,0.300,1310.000,0.500,1274.000,1.000,426.000,5.000,0
"03/05/08","02:12:12",51597.000,"cc",28294.131,6.00,6,0.100,42281.000,0.200,4753.000,0.300,2138.000,0.500,1812.000,1.000,613.000,5.000,0
"03/05/08","02:12:18",45034.000,"cc",28281.674,6.00,6,0.100,39092.000,0.200,3240.000,0.300,1140.000,0.500,1175.000,1.000,387.000,5.000,0
"03/05/08","02:12:24",43182.000,"cc",28306.648,6.00,6,0.100,38092.000,0.200,2876.000,0.300,915.000,0.500,959.000,1.000,340.000,5.000,0
"03/05/08","02:12:30",44009.000,"cc",28319.395,6.00,6,0.100,38610.000,0.200,2984.000,0.300,1053.000,0.500,1047.000,1.000,315.000,5.000,0
"03/05/08","02:12:36",44111.000,"cc",28269.385,6.00,6,0.100,38579.000,0.200,3067.000,0.300,1087.000,0.500,1054.000,1.000,324.000,5.000,0
"03/05/08","02:12:42",48484.000,"cc",28356.424,6.00,6,0.100,40510.000,0.200,4008.000,0.300,1841.000,0.500,1597.000,1.000,528.000,5.000,0
"03/05/08","02:12:48",46514.000,"cc",28325.537,6.00,6,0.100,39772.000,0.200,3574.000,0.300,1425.000,0.500,1292.000,1.000,451.000,5.000,0
"03/05/08","02:12:54",45494.000,"cc",28335.000,6.00,6,0.100,39544.000,0.200,3272.000,0.300,1155.000,0.500,1150.000,1.000,373.000,5.000,0
"03/05/08","02:13:00",44484.000,"cc",28288.279,6.00,6,0.100,38948.000,0.200,3116.000,0.300,1083.000,0.500,1010.000,1.000,327.000,5.000,0
"03/05/08","02:13:06",46071.000,"cc",28340.777,6.00,6,0.100,39710.000,0.200,3515.000,0.300,1251.000,0.500,1146.000,1.000,449.000,5.000,0
"03/05/08","02:13:12",44021.000,"cc",28277.965,6.00,6,0.100,38739.000,0.200,3004.000,0.300,974.000,0.500,958.000,1.000,346.000,5.000,0
"03/05/08","02:13:18",43615.000,"cc",28345.195,6.00,6,0.100,38605.000,0.200,2938.000,0.300,865.000,0.500,912.000,1.000,295.000,5.000,0
"03/05/08","02:13:24",44577.000,"cc",28266.797,6.00,6,0.100,38827.000,0.200,3192.000,0.300,1145.000,0.500,1066.000,1.000,347.000,5.000,0
"03/05/08","02:13:30",57311.000,"cc",28319.414,6.00,6,0.100,44455.000,0.200,6336.000,0.300,3233.000,0.500,2492.000,1.000,795.000,5.000,0
"03/05/08","02:13:36",44688.000,"cc",28318.998,6.00,6,0.100,39062.000,0.200,3255.000,0.300,1054.000,0.500,995.000,1.000,322.000,5.000,0
"03/05/08","02:13:42",46574.000,"cc",28336.059,6.00,6,0.100,39830.000,0.200,3684.000,0.300,1437.000,0.500,1249.000,1.000,374.000,5.000,0
"03/05/08","02:13:48",48648.000,"cc",28311.375,6.00,6,0.100,40666.000,0.200,4220.000,0.300,1771.000,0.500,1499.000,1.000,492.000,5.000,0
"03/05/08","02:13:54",46876.000,"cc",28350.951,6.00,6,0.100,39947.000,0.200,3762.000,0.300,1479.000,0.500,1274.000,1.000,414.000,5.000,0
"03/05/08","02:14:00",46154.000,"cc",28313.012,6.00,6,0.100,39562.000,0.200,3606.000,0.300,1320.000,0.500,1267.000,1.000,399.000,5.000,0
"03/05/08","02:14:06",45219.000,"cc",28401.953,6.00,6,0.100,39427.000,0.200,3253.000,0.300,1147.000,0.500,1041.000,1.000,351.000,5.000,0
"03/05/08","02:14:12",44918.000,"cc",28294.764,6.00,6,0.100,39385.000,0.200,3100.000,0.300,1045.000,0.500,1028.000,1.000,360.000,5.000,0
"03/05/08","02:14:18",48049.000,"cc",28253.582,6.00,6,0.100,40509.000,0.200,3979.000,0.300,1677.000,0.500,1388.000,1.000,496.000,5.000,0
"03/05/08","02:14:24",45910.000,"cc",28330.023,6.00,6,0.100,39408.000,0.200,3537.000,0.300,1339.000,0.500,1210.000,1.000,416.000,5.000,0
"03/05/08","02:14:30",47199.000,"cc",28292.313,6.00,6,0.100,40144.000,0.200,3728.000,0.300,1549.000,0.500,1335.000,1.000,443.000,5.000,0
"03/05/08","02:14:36",44398.000,"cc",28362.164,6.00,6,0.100,38928.000,0.200,3080.000,0.300,1029.000,0.500,991.000,1.000,370.000,5.000,0
"03/05/08","02:14:42",44371.000,"cc",28344.986,6.00,6,0.100,38950.000,0.200,3061.000,0.300,1029.000,0.500,986.000,1.000,345.000,5.000,0
"03/05/08","02:14:48",43512.000,"cc",28340.824,6.00,6,0.100,38544.000,0.200,2879.000,0.300,879.000,0.500,919.000,1.000,291.000,5.000,0
"03/05/08","02:14:54",44787.000,"cc",28257.107,6.00,6,0.100,39338.000,0.200,3087.000,0.300,1062.000,0.500,993.000,1.000,307.000,5.000,0
"03/05/08","02:15:00",47449.000,"cc",28294.775,6.00,6,0.100,40253.000,0.200,3781.000,0.300,1593.000,0.500,1376.000,1.000,446.000,5.000,0
"03/05/08","02:15:06",45153.000,"cc",28211.600,6.00,6,0.100,39193.000,0.200,3272.000,0.300,1216.000,0.500,1118.000,1.000,354.000,5.000,0
"03/05/08","02:15:12",46903.000,"cc",28312.080,6.00,6,0.100,39958.000,0.200,3743.000,0.300,1470.000,0.500,1293.000,1.000,439.000,5.000,0
"03/05/08","02:15:18",45143.000,"cc",28403.660,6.00,6,0.100,39171.000,0.200,3347.000,0.300,1173.000,0.500,1081.000,1.000,371.000,5.000,0
"03/05/08","02:15:24",44800.000,"cc",28294.910,6.00,6,0.100,39057.000,0.200,3228.000,0.300,1092.000,0.500,1079.000,1.000,344.000,5.000,0
"03/05/08","02:15:30",43673.000,"cc",28294.705,6.00,6,0.100,38489.000,0.200,2885.000,0.300,982.000,0.500,966.000,1.000,351.000,5.000,0
"03/05/08","02:15:36",43565.000,"cc",28318.315,6.00,6,0.100,38607.000,0.200,2841.000,0.300,875.000,0.500,915.000,1.000,327.000,5.000,0
"03/05/08","02:15:42",44190.000,"cc",28351.440,6.00,6,0.100,38726.000,0.200,3031.000,0.300,1023.000,0.500,1071.000,1.000,339.000,5.000,0
"03/05/08","02:15:48",45179.000,"cc",28283.182,6.00,6,0.100,39182.000,0.200,3339.000,0.300,1185.000,0.500,1104.000,1.000,369.000,5.000,0
"03/05/08","02:15:54",49497.000,"cc",28324.500,6.00,6,0.100,41205.000,0.200,4307.000,0.300,1832.000,0.500,1627.000,1.000,526.000,5.000,0
"03/05/08","02:16:00",47068.000,"cc",28367.787,6.00,6,0.100,40065.000,0.200,3747.000,0.300,1487.000,0.500,1311.000,1.000,458.000,5.000,0
"03/05/08","02:16:06",47506.000,"cc",28324.332,6.00,6,0.100,39910.000,0.200,4095.000,0.300,1678.000,0.500,1329.000,1.000,494.000,5.000,0
"03/05/08","02:16:12",45344.000,"cc",28307.332,6.00,6,0.100,39366.000,0.200,3292.000,0.300,1218.000,0.500,1115.000,1.000,353.000,5.000,0
"03/05/08","02:16:18",52565.000,"cc",28260.443,6.00,6,0.100,42796.000,0.200,4994.000,0.300,2269.000,0.500,1900.000,1.000,606.000,5.000,0